Regional Weather Roundup
Issued by NWS Charleston, SC

Current Version | Previous Version | Text Only | Print | Product List | Glossary Off
Versions: 1 2 3 4 5 6 7 8 9 10 11 12 13 14 15 16 17 18 19 20 21 22 23 24 25 26 27 28 29 30 31 32 33 34 35 36 37 38 39 40 41 42 43 44 45 46 47 48 49 50

713
ASUS42 KCHS 262326
RWRCHS

REGIONAL WEATHER ROUNDUP
NATIONAL WEATHER SERVICE CHARLESTON SC
600 PM EST SUN FEB 26 2017

NOTE: "FAIR" INDICATES FEW OR NO CLOUDS BELOW 12,000 FEET WITH NO
SIGNIFICANT WEATHER AND/OR OBSTRUCTIONS TO VISIBILITY.

NOT ALL STATIONS ARE QUALITY CONTROLLED. USE DATA WITH CAUTION...
ESPECIALLY DEWPOINT OBSERVATIONS.

SCZ027-030-031-034>040-042>050-270000-
...SOUTHEAST SOUTH CAROLINA...

CITY           SKY/WX    TMP DP  RH WIND       PRES   REMARKS
N CHARLESTON   CLEAR     56  35  45 S7        30.23R
WATERFRONT PRK   N/A     58  40  50 S9        30.20R
MOUNT PLEASANT LGT RAIN  54  36  50 CALM      30.25R
JOHNS ISLAND   FAIR      55  39  54 CALM      30.24R
PINOPOLIS        N/A     61  30  31 VRB2      30.12R
MONCKS CORNER  FAIR      55  25  30 CALM      30.23R
SUMMERVILLE    FAIR      59  27  29 NE3       30.23R
BEAUFORT MCAS  CLEAR     61  41  47 S6        30.22R
BEAUFORT ARPT  FAIR      57  36  44 CALM      30.23R
HILTON HEAD IS CLEAR     59  36  41 S6        30.23R
WALTERBORO     CLEAR     61  23  23 CALM      30.23R
ALLENDALE      FAIR      59  23  25 CALM      30.21R

...SOUTHERN MIDLANDS AND PEE DEE...

CITY           SKY/WX    TMP DP  RH WIND       PRES   REMARKS
GEORGETOWN     FAIR      52  34  50 S5        30.25R
KINGSTREE      FAIR      54  28  37 CALM      30.23R
ORANGEBURG     CLEAR     61  18  18 SW5       30.21R
BARNWELL       FAIR      61  21  21 CALM      30.22R
AIKEN          FAIR      55  19  24 CALM      30.24R
MANNING        FAIR     N/A N/A N/A MISG      30.22R
COLUMBIA       CLEAR     61  20  20 CALM      30.21R
SUMTER         CLEAR     59  16  18 W5        30.19R
FLORENCE       CLEAR     57  19  22 W6        30.22R
MYRTLE BEACH   CLEAR     55  34  44 S8        30.23R
N MYRTLE BEACH CLEAR     53  34  48 SW8       30.23R

$$

GAZ063-065-086>088-099>101-113>116-118-119-134>141-150-270000-
...SOUTHEAST GEORGIA...

CITY           SKY/WX    TMP DP  RH WIND       PRES   REMARKS
SAVANNAH ARPT  CLEAR     65  22  19 CALM      30.21R
HUNTER AAF     CLEAR     60  40  47 SE5       30.19R
FORT STEWART   CLEAR     66  25  21 CALM      30.19R
STATESBORO     CLEAR     57  40  52 CALM      30.22R
SYLVANIA       CLEAR    N/A N/A N/A CALM      30.22S
CLAXTON        FAIR      57  38  47 CALM      30.22R

...CSRA...CENTRAL AND FAR SOUTHEAST GEORGIA...

CITY           SKY/WX    TMP DP  RH WIND       PRES   REMARKS
THOMSON        CLEAR     62  30  30 CALM      30.24R
AUGUSTA-BUSH   CLEAR     65  20  17 CALM      30.19R
AUGUSTA-DANIEL CLEAR     64  17  16 NE5       30.20R
SWAINSBORO     FAIR      61  30  31 CALM      30.21R
VIDALIA        CLEAR     64  32  29 CALM      30.21R
EASTMAN        FAIR      64 -25   2 CALM      30.23R
HAZLEHURST     FAIR      63  29  28 CALM      30.20R
ALMA           CLEAR     64  27  24 CALM      30.20R
WAYCROSS       CLEAR     66  31  27 CALM      30.21R
JESUP          FAIR      61  28  29 CALM      30.22R
BAXLEY         FAIR      63  37  39 CALM      30.21R
BRUNSWICK      CLEAR     61  43  51 SE5       30.24R
SAINT SIMONS   CLEAR     60  38  43 E9        30.22R

$$

SCZ027-028-034-036>038-045-046-048>050-GAZ119-141-270000-
...LAKE AND SUPPLEMENTAL COASTAL OBSERVATIONS...

STATION/POSITION TIME  TEMP    WIND        PRES    WAVE   SWELL
                       AIR SEA DIR/SP/G            HT/PER HT/PER/DIR
                 (UTC) (F)     (DEG/KT/KT) (MB)    (FT/S) (FT/S/D)
WINYAH BAY       2230   56     150/  6     1023.0S
LAKE MURRAY      2230   61     110/  1/  2 1022.4R
ACE BASIN NERRS  2230   60     170/  2     1023.0R
FORT PULASKI     2300   59 63  160/  4/  6 1023.6
SAPELO ISLAND    2300   61     120/  4     1023.0

$$

ANZ835-935-AMZ111-154-330-350-352-354-370-450-454-472-270000-
...C-MAN AND BUOY OBSERVATIONS...

STATION/POSITION TIME  TEMP    WIND        PRES    WAVE   SWELL
                       AIR SEA DIR/SP/G            HT/PER HT/PER/DIR
                 (UTC) (F)     (DEG/KT/KT) (MB)    (FT/S) (FT/S/D)
BUOY 41004       2250   59 69  150/  4/  8 1023.3R   3/ 9   3/110/ 9
BUOY 41008       2250   59 62  110/ 10/ 10 1023.2R   2/ 8   2/100/ 8
FOLLY BEACH CMAN 2300   58     170/  8/ 11 1024.3R
CAPERS NEARSHORE 2308   58 61  220/  8/ 12 1023.6R
FRIPP NEARSHORE  2308   59 62  170/  8/ 12 1023.2R


STATION/POSITION TIME  TEMP    WIND        PRES    WAVE   SWELL
                       AIR SEA DIR/SP/G            HT/PER HT/PER/DIR
                 (UTC) (F)     (DEG/KT/KT) (MB)    (FT/S) (FT/S/D)
5E ST. MARYS GA  2300      64                N/A     2/11   2/ 90/11
FRYING PAN BUOY  2310   56 69  270/  2/  4 1023.9
BUOY 41025       2250   54 72  290/  4/  8 1023.4R   4/ 9   3/130/ 9
CAPE LOOKOUT NC  2300   54     230/  6/  8 1023.0R
BUOY 41002       2250   67 71  350/ 10/ 14 1022.3R   6/ 7   5/310/ 7
BUOY 41010       NOT AVBL
ST AUGUSTINE FL  2300   60 67   40/ 10/ 11 1024.4S


$$




USA.gov is the U.S. government's official web portal to all federal, state and local government web resources and services.